Regional Weather Roundup
Issued by NWS

Home | Current Version | Previous Version | Text Only | Print | Product List | Glossary Off
Versions: 1 2 3 4 5 6 7 8 9 10 11 12 13 14 15 16 17 18 19 20 21 22 23 24 25 26 27 28 29 30 31 32 33 34 35 36 37 38 39 40 41 42 43 44 45 46 47 48 49 50

906
ASUS43 KDMX 091906
RWRIA

WEATHER ROUNDUP FOR IOWA
NATIONAL WEATHER SERVICE DES MOINES IA
100 PM CST FRI DEC 09 2016

NOTE: "FAIR" INDICATES FEW OR NO CLOUDS BELOW 12,000 FEET WITH NO
SIGNIFICANT WEATHER AND/OR OBSTRUCTIONS TO VISIBILITY.

* - THESE STATIONS ARE NOT NWS STATIONS...THUS NOT UNDER NWS
QUALITY CONTROL.  THEY ALSO DO NOT REPORT WEATHER SUCH
AS PRECIPITATION OR FOG.

IAZ001>003-012>014-020>022-031>034-043>046-092000-
   NORTHWEST IOWA

CITY           SKY/WX    TMP DP  RH WIND       PRES   REMARKS
CARROLL *      MOSUNNY   19  10  68 CALM      30.53F
CHEROKEE *     MOSUNNY   17   9  69 SW5       30.53F WCI  10
DENISON *      SUNNY     18   9  68 W7        30.52F WCI   8
LE MARS *      CLOUDY    16   5  62 CALM      30.55F
ORANGE CITY *  CLOUDY    16   9  73 CALM      30.51F
SHELDON *      CLOUDY    16   7  67 VRB7      30.50F WCI   6
SIOUX CITY     CLOUDY    16   6  65 CALM      30.56F
SPENCER        MOSUNNY   17   8  67 VRB7      30.51F WCI   8
STORM LAKE *   MOSUNNY   16   9  73 W8        30.50F WCI   5
$$

IAZ055>058-069>071-079>083-090>094-092000-
   SOUTHWEST IOWA

CITY           SKY/WX    TMP DP  RH WIND       PRES   REMARKS
ATLANTIC *     CLOUDY    19  10  68 CALM      30.54F
AUDUBON *      SUNNY     21  10  63 W9        30.52F WCI  11
CLARINDA *     CLOUDY    21  14  73 SW6       30.58F WCI  14
COUNCIL BLFS * MOSUNNY   19  12  73 S6        30.53F WCI  11
CRESTON *      MOSUNNY   19  12  73 W5        30.55F WCI  13
HARLAN  *      SUNNY     19  12  73 VRB5      30.57F WCI  13
LAMONI         PTSUNNY   22  12  65 VRB5      30.55F WCI  16
RED OAK *      CLOUDY    21  12  68 S6        30.56F WCI  14
SHENANDOAH *   CLOUDY    21  12  68 S5        30.57F WCI  15
$$

IAZ047>049-059>061-072>074-084-092000-
   CENTRAL IOWA

CITY           SKY/WX    TMP DP  RH WIND       PRES   REMARKS
AMES           SUNNY     20  12  71 W9        30.55F WCI   9
ANKENY *       CLOUDY    21   9  58 W7        30.58F WCI  13
BOONE *        PTSUNNY   19  12  73 SW7       30.53F WCI  10
CHARITON *     CLOUDY    21  10  63 CALM      30.55F
DES MOINES     CLOUDY    22  10  60 VRB6      30.56F WCI  14
GRINNELL*      MOSUNNY   19  12  75 W6        30.55F WCI  11
KNOXVILLE *    CLOUDY    19  10  68 W7        30.55F WCI  10
MARSHALLTOWN   SUNNY     20  12  71 W5        30.54F WCI  13
NEWTON *       PTSUNNY   21  10  63 VRB5      30.55F WCI  15
PELLA *        CLOUDY    21  11  66 SW5       30.58F WCI  14
PERRY *          N/A     20  13  75 W5        30.56F WCI  14
$$

IAZ004>006-015-016-023>025-035-036-092000-
   NORTH CENTRAL IOWA

CITY           SKY/WX    TMP DP  RH WIND       PRES   REMARKS
ALGONA *       SUNNY     18  10  73 NW5       30.51F WCI  11
CLARION *      SUNNY     19  10  68 W7        30.52F WCI  10
ESTHERVILLE    MOSUNNY   16   8  71 NW6       30.50F WCI   7
FORT DODGE *   SUNNY     19  10  68 W7        30.54F WCI  10
MASON CITY     MOSUNNY   19  10  68 W9        30.52F WCI   8
FOREST CITY *    N/A     23  12  63 NW8       30.51F WCI  14
WEBSTER CITY * MOSUNNY   19  12  73 W6        30.52F WCI  11
IOWA FALLS *     N/A     21  13  72 W5        30.53F WCI  14
$$

IAZ007>011-017>019-026>030-037>042-050>054-066-092000-
   NORTHEAST IOWA

CITY           SKY/WX    TMP DP  RH WIND       PRES   REMARKS
CEDAR RAPIDS   MOSUNNY   18  13  80 W6        30.54F WCI  10
CHARLES CITY * SUNNY     16  10  79 W7        30.52F WCI   6
CLINTON *      SUNNY     24  14  65 NW8       30.55F WCI  15
DECORAH *      SUNNY     18  10  73 W6        30.49F WCI   9
DUBUQUE        SUNNY     18  12  77 W8        30.51F WCI   8
MONTICELLO *   SUNNY     19  12  73 NW6       30.54F WCI  11
OELWEIN *      MOSUNNY   16  12  86 NW3       30.52F
WATERLOO       MOSUNNY   19  10  68 NW7       30.54F WCI  10
$$

IAZ064-065-067-068-078-092000-
   EAST CENTRAL IOWA

CITY           SKY/WX    TMP DP  RH WIND       PRES   REMARKS
DAVENPORT      MOSUNNY   22  13  68 NW7       30.54F WCI  13
IOWA CITY      MOSUNNY   22  12  65 W5        30.58F WCI  16
MUSCATINE *    PTSUNNY   23  12  63 W6        30.58F WCI  16
QUAD CITIES    MOSUNNY   23  13  65 NW9       30.56F WCI  13
$$

IAZ062-063-075>077-085>089-095>099-092000-
   SOUTHEAST IOWA

CITY           SKY/WX    TMP DP  RH WIND       PRES   REMARKS
BURLINGTON     MOSUNNY   22  12  65 W6        30.57F WCI  14
FAIRFIELD *    MOSUNNY   21  10  63 W6        30.57F WCI  14
FORT MADISON * CLOUDY    21  12  68 W7        30.59F WCI  13
KEOKUK *       CLOUDY    23  14  68 W5        30.58F WCI  17
OSKALOOSA *      N/A     20  12  69 W6        30.57F WCI  13
CENTERVILLE *    N/A     23  12  63 CALM      30.57F
OTTUMWA        CLOUDY    20   9  62 W8        30.57F WCI  10
WASHINGTON *   CLOUDY    21  12  68 W9        30.58F WCI  11
$$

ABBREVIATIONS USED IN REMARKS
   TC - TEMPERATURES IN CELSIUS
  WCI - WIND CHILL INDEX
   HX - HEAT INDEX
  VSB - VISIBILITY
$$





USA.gov is the U.S. government's official web portal to all federal, state and local government web resources and services.